Time,TemperatureF,DewpointF,PressureIn,WindDirection,WindDirectionDegrees,WindSpeedMPH,WindSpeedGustMPH,Humidity,HourlyPrecipIn,Conditions,Clouds,dailyrainin,SolarRadiationWatts/m^2,SoftwareType,DateUTC
2013-08-05 00:00:00,75.5,73.0,29.94,ESE,121,0.0,0.0,92,0.00,,OVC018,0.00,0.00,VWS V14.00,2013-08-05 04:00:00,
2013-08-05 01:00:00,74.7,72.6,29.93,SE,127,0.0,0.0,93,0.00,,OVC018,0.00,0.00,VWS V14.00,2013-08-05 05:00:00,
2013-08-05 02:00:00,73.5,72.0,29.91,NE,46,0.0,0.0,95,0.00,,OVC018,0.00,0.00,VWS V14.00,2013-08-05 06:00:00,
2013-08-05 03:00:00,72.6,71.4,29.91,NNE,16,0.0,0.0,96,0.00,,OVC018,0.00,0.00,VWS V14.00,2013-08-05 07:00:00,
2013-08-05 04:00:00,71.8,70.6,29.91,East,101,0.0,0.0,96,0.00,,OVC018,0.00,0.00,VWS V14.00,2013-08-05 08:00:00,
2013-08-05 05:00:00,71.3,70.4,29.93,NNW,344,0.0,0.0,97,0.00,,OVC018,0.00,0.00,VWS V14.00,2013-08-05 09:00:00,
2013-08-05 06:00:00,71.0,70.1,29.94,NNW,344,0.0,0.0,97,0.00,,OVC018,0.00,0.00,VWS V14.00,2013-08-05 10:00:00,
2013-08-05 07:00:00,71.5,70.6,29.95,North,352,0.0,0.0,97,0.00,,OVC018,0.00,74.00,VWS V14.00,2013-08-05 11:00:00,
2013-08-05 09:00:00,77.3,74.8,29.98,South,169,0.0,0.0,92,0.00,,OVC018,0.00,295.00,VWS V14.00,2013-08-05 13:00:00,
2013-08-05 11:00:00,82.7,77.0,29.98,ENE,65,0.0,0.0,83,0.00,,OVC018,0.00,264.00,VWS V14.00,2013-08-05 15:00:00,
2013-08-05 12:00:00,81.3,76.0,29.97,ENE,68,0.0,0.0,84,0.00,,OVC018,0.00,132.00,VWS V14.00,2013-08-05 16:00:00,
2013-08-05 13:00:00,84.2,77.0,29.94,SE,142,0.0,0.0,79,0.00,,OVC018,0.00,947.00,VWS V14.00,2013-08-05 17:00:00,
2013-08-05 15:00:00,87.2,77.9,29.91,SE,136,0.0,0.0,74,0.00,,OVC018,0.00,828.00,VWS V14.00,2013-08-05 19:00:00,
2013-08-05 16:00:00,86.8,76.7,29.91,ESE,117,0.0,0.0,72,0.00,,OVC018,0.00,214.00,VWS V14.00,2013-08-05 20:00:00,
2013-08-05 17:00:00,85.1,76.7,29.90,SE,124,0.0,0.0,76,0.00,,OVC018,0.00,408.00,VWS V14.00,2013-08-05 21:00:00,
2013-08-05 18:00:00,84.4,78.3,29.90,SSE,149,0.0,0.0,82,0.00,,OVC018,0.00,130.00,VWS V14.00,2013-08-05 22:00:00,
2013-08-05 19:00:00,82.0,77.1,29.92,SSE,152,0.0,0.0,85,0.00,,OVC018,0.00,35.00,VWS V14.00,2013-08-05 23:00:00,
2013-08-05 21:00:00,76.6,74.1,29.95,SE,124,0.0,0.0,92,0.02,,OVC018,0.02,0.00,VWS V14.00,2013-08-06 01:00:00,
2013-08-05 22:00:00,75.2,73.7,29.95,South,180,0.0,0.0,95,0.02,,OVC018,0.02,0.00,VWS V14.00,2013-08-06 02:00:00,
2013-08-05 23:00:00,74.2,72.1,29.95,SE,142,0.0,0.0,93,0.00,,OVC018,0.02,0.00,VWS V14.00,2013-08-06 03:00:00,